Home > Weather > Izmir > Past weeks

Flag for Turkey Past Weather in Izmir, Turkey — Yesterday and Last 2 Weeks

Now
86 °F

Clear.


Feels Like: 87 °F
Forecast: 71 / 98 °F
Wind: 14 mph from North

Location: Izmir / Adnan Menderes

Current Time: Jul 29, 2016 at 10:54:50 PM

Latest Report: Jul 29, 2016 at 10:20 PM


Visibility: 10 mi

Pressure: 29.71 "Hg

Humidity: 46%

Dew Point: 63 °F

Location of IzmirLocation

Past Weather in Izmir — Graph

°F

Izmir Temperature Yesterday

Maximum temperature yesterday: 95 °F (at 3:50 PM)
Minimum temperature yesterday: 73 °F (at 2:50 AM)
Average temperature yesterday: 85 °F

High & Low Weather Summary for the Past Weeks

 TemperatureHumidityPressure
High100 °F (Jul 15, 2:50 PM)83% (Jul 17, 3:50 AM)29.92 "Hg (Jul 17, 3:50 AM)
Low66 °F (Jul 15, 5:50 AM)13% (Jul 15, 4:50 PM)29.62 "Hg (Jul 19, 5:20 PM)
Average84 °F42%29.75 "Hg
* Reported Jul 14 9:20 PM — Jul 29 9:20 PM, Izmir, Weather by CustomWeather, © 2016

Note: Actual official high and low records may vary slightly from our data, if they occured in-between our weather recording intervals... More about our weather records

Advertising

Izmir Weather History for the Previous 24 Hours

Scroll right to see more
 ConditionsComfort  
Time TempWeatherWind HumidityBarometerVisibility
9:20 PM
Fri, Jul 29
86 °FSunny.17 mph46%29.68 "Hg10 mi
8:50 PM88 °FSunny.16 mph43%29.68 "Hg10 mi
8:20 PM88 °FSunny.18 mph43%29.68 "Hg10 mi
7:50 PM90 °FSunny.18 mph41%29.68 "Hg10 mi
7:20 PM90 °FSunny.18 mph41%29.68 "Hg10 mi
6:50 PM91 °FSunny.21 mph38%29.68 "Hg10 mi
6:20 PM91 °FSunny.22 mph38%29.68 "Hg10 mi
5:50 PM91 °FSunny.23 mph38%29.68 "Hg10 mi
5:20 PM93 °FSunny.21 mph39%29.68 "Hg10 mi
4:50 PM93 °FSunny.22 mph39%29.68 "Hg10 mi
4:20 PM93 °FSunny.23 mph39%29.68 "Hg10 mi
3:50 PM93 °FSunny.22 mph39%29.68 "Hg10 mi
3:20 PM93 °FSunny.22 mph39%29.68 "Hg10 mi
2:50 PM91 °FSunny.23 mph44%29.71 "Hg10 mi
2:20 PM91 °FSunny.22 mph44%29.71 "Hg10 mi
1:50 PM91 °FSunny.21 mph44%29.71 "Hg10 mi
1:20 PM91 °FSunny.20 mph44%29.71 "Hg10 mi
12:50 PM90 °FSunny.18 mph43%29.71 "Hg10 mi
12:20 PM90 °FPassing clouds.17 mph43%29.71 "HgN/A
11:50 AM88 °FSunny.17 mph46%29.74 "Hg10 mi
11:20 AM88 °FSunny.16 mph46%29.74 "Hg10 mi
10:50 AM86 °FPassing clouds.14 mph49%29.74 "HgN/A
10:20 AM84 °FPassing clouds.14 mph51%29.74 "HgN/A
9:50 AM82 °FSunny.16 mph55%29.74 "Hg10 mi
9:20 AM81 °FSunny.15 mph58%29.74 "Hg10 mi
8:50 AM81 °FSunny.16 mph58%29.74 "Hg10 mi
8:20 AM79 °FSunny.14 mph58%29.74 "Hg10 mi
7:50 AM79 °FSunny.15 mph58%29.74 "Hg10 mi
7:20 AM79 °FSunny.13 mph58%29.74 "Hg10 mi
6:50 AM77 °FClear.12 mph61%29.71 "Hg10 mi
6:20 AM77 °FClear.13 mph61%29.71 "Hg10 mi
5:50 AM77 °FClear.13 mph61%29.71 "Hg10 mi
5:20 AM77 °FClear.13 mph61%29.71 "Hg10 mi
4:50 AM75 °FClear.9 mph69%29.71 "Hg10 mi
4:20 AM77 °FClear.8 mph65%29.71 "Hg10 mi
3:50 AM77 °FClear.9 mph65%29.71 "Hg10 mi
3:20 AM79 °FClear.10 mph61%29.74 "Hg10 mi
2:50 AM77 °FClear.8 mph57%29.74 "Hg10 mi
2:20 AM77 °FClear.7 mph57%29.74 "Hg10 mi
1:50 AM77 °FClear.5 mph57%29.74 "Hg10 mi
1:20 AM77 °FClear.No wind57%29.74 "Hg10 mi
12:50 AM82 °FPassing clouds.6 mph48%29.74 "HgN/A
12:20 AM81 °FClear.2 mph51%29.74 "Hg10 mi
11:50 PM
Thu, Jul 28
82 °FClear.7 mph51%29.74 "Hg10 mi
11:20 PM84 °FClear.9 mph45%29.74 "Hg10 mi
10:50 PM84 °FPassing clouds.5 mph48%29.74 "HgN/A
10:20 PM86 °FClear.10 mph46%29.74 "Hg10 mi
Weather by CustomWeather, © 2016

See weather overviewHow to use our weather pages